Regional Weather Roundup
Issued by NWS

Home | Current Version | Previous Version | Text Only | Print | Product List | Glossary On
Versions: 1 2 3 4 5 6 7 8 9 10 11 12 13 14 15 16 17 18 19 20 21 22 23 24 25 26 27 28 29 30 31 32 33 34 35 36 37 38 39 40 41 42 43 44 45 46 47 48 49 50
000
ASUS43 KDTX 231610
RWRMI
MICHIGAN HOURLY REGIONAL WEATHER ROUNDUP
NATIONAL WEATHER SERVICE DETROIT/PONTIAC MI
ISSUED BY NATIONAL WEATHER SERVICE GRAND RAPIDS MI
1200 PM EDT WED AUG 23 2017

NOTE: "FAIR" INDICATES FEW OR NO CLOUDS BELOW 12,000 FEET WITH NO
SIGNIFICANT WEATHER AND/OR OBSTRUCTION TO VISIBILITY.

MIZ047>049-052>055-059>063-066>070-074>076-081>083-231700-
SOUTHEAST LOWER MICHIGAN

CITY           SKY/WX    TMP DP  RH WIND       PRES   REMARKS
ADRIAN         MOSUNNY   71  53  52 NW12      29.99S
ALMA           PTSUNNY   68  53  57 W14G20    29.97S
ANN ARBOR      MOSUNNY   71  52  50 W10G22    29.96S
BAD AXE        CLOUDY    66  53  62 NW12      29.93R
DETROIT CITY   MOSUNNY   71  52  50 NW8G18    29.95R
DETROIT        MOSUNNY   73  53  49 NW15      29.96S
FLINT          PTSUNNY   68  54  60 W17       29.96R
GROSSE ILE     MOSUNNY   73  52  48 NW12G20   29.95S
HILLSDALE      PTSUNNY   72  54  53 W12G20    29.99S
HOWELL         PTSUNNY   69  53  58 W12G17    29.97S

CITY           SKY/WX    TMP DP  RH WIND       PRES   REMARKS
JACKSON        PTSUNNY   71  53  52 W10G18    29.98S
LANSING        MOSUNNY   70  51  51 W16       29.98S
MASON          PTSUNNY   71  53  52 NW13G20   29.98S
MONROE         MOSUNNY   73  55  53 W9G16     29.96S
MT. CLEMENS    MOSUNNY   71  55  58 W16       29.93R
PONTIAC        PTSUNNY   69  52  54 W20       29.95R
PORT HOPE        N/A     66  54  65 NW9G16    29.91R
PORT HURON     PTSUNNY   70  55  60 W7        29.94R
TRI CITIES     PTSUNNY   69  55  60 NW15      29.96R
YPSILANTI      MOSUNNY   75  55  49 NW13      29.97R
$$
MIZ043>046-050>051-056>058-064>065-071>073-077>080-231700-
SOUTHWEST LOWER MICHIGAN

CITY           SKY/WX    TMP DP  RH WIND       PRES   REMARKS
BATTLE CREEK   PTSUNNY   72  53  51 W20G25    30.00S
BENTON HARBOR  MOSUNNY   72  55  55 W13       30.03R
BIG RAPIDS     PTSUNNY   67  51  56 W13G18    29.97S
COLDWATER      PTSUNNY   72  53  50 NW12G18   30.00S
HOLLAND        MOSUNNY   70  55  59 NW12      30.01S
GRAND RAPIDS   MOSUNNY   71  53  52 NW17      29.99R
KALAMAZOO      MOSUNNY   74  51  44 NW17G24   30.01R
MARSHALL       PTSUNNY   71  53  52 NW12G18   29.99R
MOUNT PLEASANT MOSUNNY   70  52  54 NW8       29.96S
MUSKEGON       PTSUNNY   70  53  54 NW14G22   30.00R
STURGIS        PTSUNNY   71  55  55 NW8       30.00S
$$
MIZ016>042-231700-
NORTHERN LOWER MICHIGAN

CITY           SKY/WX    TMP DP  RH WIND       PRES   REMARKS
ALPENA         PTSUNNY   65  52  62 NW9       29.91R
BEAVER ISLAND  MOSUNNY   64  50  60 W12G18    29.95S
BELLAIRE       PTSUNNY   64  49  57 NW10G18   29.96R
CADILLAC       PTSUNNY   66  47  49 W16G23    29.96S
CHARLEVOIX     PTSUNNY   62  50  65 NW13G18   29.99R
GAYLORD        CLOUDY    60  46  59 W10G21    29.95R
HOUGHTON LAKE  PTSUNNY   64  51  62 NW14G22   29.96R
MANISTEE       PTSUNNY   66  54  65 NW13      29.99R
OSCODA         PTSUNNY   66  49  52 NW16G25   29.91R
PELLSTON       PTSUNNY   62  50  64 NW17      29.94R
TRAVERSE CITY  PTSUNNY   64  51  62 NW12      29.96R
LUDINGTON      PTSUNNY   65  52  63 N15G22    29.99S
$$
MIZ007>008-015-231700-
EASTERN UPPER MICHIGAN

CITY           SKY/WX    TMP DP  RH WIND       PRES   REMARKS
KINROSS        CLOUDY    59  48  67 NW18G24   29.91R
MACKINAC ISLAN CLOUDY    59  49  70 NW12G24   29.93R
NEWBERRY       CLOUDY    57  53  87 NW15G24   29.94R
S. S. MARIE    CLOUDY    58  50  75 NW9G18    29.90R
$$
MIZ004>006-011>014-085-231700-
CENTRAL UPPER MICHIGAN

CITY           SKY/WX    TMP DP  RH WIND       PRES   REMARKS
MANISTIQUE     CLOUDY    60  43  54 NW16G23   29.96R
ESCANABA       PTSUNNY   63  47  55 NW14G25   29.98R
MENOMINEE      PTSUNNY   65  49  56 N12G20    30.00S
SAWYER-GWINN   MOSUNNY   59  45  58 NW10      30.00R
$$
MIZ001>003-009>011-084-231700-
WESTERN UPPER MICHIGAN

CITY           SKY/WX    TMP DP  RH WIND       PRES   REMARKS
IRON MOUNTAIN  PTSUNNY   63  46  54 N16G28    30.00S
HOUGHTON       MOSUNNY   57  44  62 NW17G26   30.02R
COPPER HARBOR    N/A     55  46  71 N20       30.00R
IRONWOOD       PTSUNNY   58  50  75 N8G17     30.08R
$$

ABBREVIATIONS USED IN REMARKS
   TC - TEMPERATURE IN CELSIUS
  WCI - WIND CHILL INDEX
   HX - HEAT INDEX
  VSB - VISIBILITY





USA.gov is the U.S. government's official web portal to all federal, state and local government web resources and services.